,,PA_Meas_PMT16A,,PR_Meas_QMR101_102,,RH_Meas_QMH101,,SR_Meas_QMS101,,TA_Meas_QMH101,,GenWind,,GenWind,
time,status,PA,status,PR,status,RH,status,SR,status,TA,status,DirAvg,status,SpdAvg,
2017-01-19, 14:31:04,VALID,919.201,VALID,0,INVALID,128.264,VALID,131.508,VALID,19.9773,VALID,91,VALID,0,
2017-01-19, 14:32:04,VALID,919.218,VALID,0,INVALID,128.386,VALID,143.112,VALID,20.0148,VALID,91,VALID,0,
2017-01-19, 14:33:04,VALID,919.238,VALID,0,INVALID,128.31,VALID,156.972,VALID,20.1139,VALID,91,VALID,0,
2017-01-19, 14:34:04,VALID,919.229,VALID,0,INVALID,127.662,VALID,167.823,VALID,20.1724,VALID,91,VALID,0,
2017-01-19, 14:35:04,VALID,919.249,VALID,0,INVALID,127.433,VALID,177.493,VALID,20.2684,VALID,91,VALID,0,
2017-01-19, 14:36:04,VALID,919.283,VALID,0,INVALID,127.098,VALID,185.981,VALID,20.3854,VALID,91,VALID,0,
2017-01-19, 14:37:04,VALID,919.325,VALID,0,INVALID,126.175,VALID,194.791,VALID,20.5625,VALID,91,VALID,0,
2017-01-19, 14:38:04,VALID,919.308,VALID,0,INVALID,125.268,VALID,201.56,VALID,20.678,VALID,91,VALID,0,
2017-01-19, 14:39:04,VALID,919.346,VALID,0,INVALID,121.845,VALID,207.684,VALID,20.8941,VALID,91,VALID,0,
2017-01-19, 14:40:04,VALID,919.355,VALID,0,VALID,99.5161,VALID,213.7,VALID,21.0307,VALID,82,VALID,0,
2017-01-19, 14:41:04,VALID,919.363,VALID,0,VALID,97.8313,VALID,220.899,VALID,21.1087,VALID,82,VALID,0,
2017-01-19, 14:42:04,VALID,919.381,VALID,0,VALID,96.5506,VALID,227.131,VALID,21.1266,VALID,82,VALID,0,
2017-01-19, 14:43:04,VALID,919.384,VALID,0,VALID,94.0425,VALID,232.288,VALID,21.1673,VALID,324,VALID,0,
2017-01-19, 14:44:04,VALID,919.424,VALID,0,VALID,95.5824,VALID,237.552,VALID,21.1884,VALID,323,VALID,0,
2017-01-19, 14:45:04,VALID,919.439,VALID,0,VALID,95.2622,VALID,235.833,VALID,21.1868,VALID,323,VALID,0,
2017-01-19, 14:46:04,VALID,919.476,VALID,0,VALID,93.3792,VALID,250.016,VALID,21.1461,VALID,323,VALID,0,
2017-01-19, 14:47:04,VALID,919.513,VALID,0,VALID,96.4972,VALID,255.388,VALID,21.1478,VALID,323,VALID,0,
2017-01-19, 14:48:04,VALID,919.522,VALID,0,VALID,98.0752,VALID,257.751,VALID,21.0876,VALID,314,VALID,0,
2017-01-19, 14:49:04,VALID,919.535,VALID,0,VALID,104,VALID,257.322,VALID,21.0681,VALID,281,VALID,0,
2017-01-19, 14:50:04,VALID,919.557,VALID,0,INVALID,115.258,VALID,258.181,VALID,21.1055,VALID,276,VALID,0,
2017-01-19, 14:51:04,VALID,919.572,VALID,0,VALID,104,VALID,257.644,VALID,21.2437,VALID,276,VALID,0,
2017-01-19, 14:52:04,VALID,919.566,VALID,0,INVALID,114.458,VALID,262.479,VALID,21.3624,VALID,302,VALID,0,
2017-01-19, 14:53:04,VALID,919.575,VALID,0,INVALID,112.872,VALID,265.917,VALID,21.4599,VALID,306,VALID,0,
2017-01-19, 14:54:04,VALID,919.572,VALID,0,VALID,92.6397,VALID,271.826,VALID,21.4583,VALID,258,VALID,0,
2017-01-19, 14:55:04,VALID,919.568,VALID,0,VALID,96.2228,VALID,272.256,VALID,21.4583,VALID,258,VALID,0,
2017-01-19, 14:56:04,VALID,919.57,VALID,0,VALID,97.7932,VALID,289.017,VALID,21.5168,VALID,319,VALID,0,
2017-01-19, 14:57:04,VALID,919.577,VALID,0,VALID,101.513,VALID,245.933,VALID,21.5559,VALID,349,VALID,0,
2017-01-19, 14:58:04,VALID,919.59,VALID,0,VALID,98.0295,VALID,295.678,VALID,21.6144,VALID,349,VALID,0,
2017-01-19, 14:59:04,VALID,919.602,VALID,0,VALID,100.294,VALID,213.593,VALID,21.7315,VALID,12,VALID,0,
2017-01-19, 15:00:04,VALID,919.639,VALID,0,VALID,97.3434,VALID,206.072,VALID,21.8485,VALID,11,VALID,0,
2017-01-19, 15:01:04,VALID,919.669,VALID,0,VALID,94.7438,VALID,206.717,VALID,21.964,VALID,348,VALID,0,
2017-01-19, 15:02:04,VALID,919.649,VALID,0,VALID,88.4392,VALID,174.27,VALID,21.9835,VALID,306,VALID,0,
2017-01-19, 15:03:04,VALID,919.682,VALID,0,VALID,87.9132,VALID,165.137,VALID,21.9444,VALID,270,VALID,0,
2017-01-19, 15:04:04,VALID,919.689,VALID,0,VALID,89.5675,VALID,163.74,VALID,21.9054,VALID,270,VALID,0,
2017-01-19, 15:05:04,VALID,919.679,VALID,0,VALID,92.8913,VALID,167.286,VALID,21.8485,VALID,282,VALID,0,
2017-01-19, 15:06:04,VALID,919.684,VALID,0,VALID,95.6205,VALID,170.402,VALID,21.8079,VALID,281,VALID,0,
2017-01-19, 15:07:04,VALID,919.686,VALID,0,VALID,93.3259,VALID,170.294,VALID,21.7688,VALID,281,VALID,0,
2017-01-19, 15:08:04,VALID,919.693,VALID,0,VALID,94.4694,VALID,167.501,VALID,21.7688,VALID,269,VALID,0,
2017-01-19, 15:09:04,VALID,919.692,VALID,0,VALID,94.9573,VALID,162.558,VALID,21.7688,VALID,264,VALID,0,
2017-01-19, 15:10:04,VALID,919.711,VALID,0,VALID,95.9178,VALID,157.079,VALID,21.7087,VALID,257,VALID,0,
2017-01-19, 15:11:04,VALID,919.757,VALID,0,VALID,93.7299,VALID,148.699,VALID,21.6501,VALID,262,VALID,0,
2017-01-19, 15:29:04,VALID,919.868,VALID,0,VALID,94.5304,VALID,152.566,VALID,21.6128,VALID,343,VALID,0,
2017-01-19, 15:30:04,VALID,919.88,VALID,0,VALID,92.1366,VALID,157.616,VALID,21.6713,VALID,343,VALID,0,
2017-01-19, 15:31:04,VALID,919.861,VALID,0,VALID,92.8761,VALID,164.17,VALID,21.7688,VALID,343,VALID,0,
2017-01-19, 15:32:04,VALID,919.878,VALID,0,VALID,92.3043,VALID,172.658,VALID,21.8859,VALID,345,VALID,0,
2017-01-19, 15:33:04,VALID,919.87,VALID,0,VALID,91.7554,VALID,185.551,VALID,21.9835,VALID,13,VALID,0,
2017-01-19, 15:34:04,VALID,919.883,VALID,0,VALID,88.607,VALID,241.957,VALID,22.042,VALID,13,VALID,0,
2017-01-19, 15:35:04,VALID,919.885,VALID,0,VALID,89.415,VALID,282.248,VALID,22.042,VALID,13,VALID,0,
2017-01-19, 15:36:04,VALID,919.911,VALID,0,VALID,88.5307,VALID,217.998,VALID,22.1005,VALID,13,VALID,0,
2017-01-19, 15:37:04,VALID,919.886,VALID,0,VALID,89.1711,VALID,220.577,VALID,22.2176,VALID,13,VALID,0,
2017-01-19, 15:38:04,VALID,919.913,VALID,0,VALID,89.6514,VALID,215.312,VALID,22.3152,VALID,326,VALID,0,
2017-01-19, 15:39:04,VALID,919.928,VALID,0,VALID,88.3554,VALID,222.188,VALID,22.294,VALID,313,VALID,0,
2017-01-19, 15:40:04,VALID,919.925,VALID,0,VALID,87.9285,VALID,226.916,VALID,22.2762,VALID,343,VALID,0,
2017-01-19, 15:41:04,VALID,919.919,VALID,0,VALID,88.1038,VALID,217.031,VALID,22.3152,VALID,314,VALID,0,
2017-01-19, 15:42:04,VALID,919.962,VALID,0,VALID,85.9464,VALID,218.428,VALID,22.2176,VALID,289,VALID,0,
2017-01-19, 15:43:04,VALID,919.914,VALID,0,VALID,86.4572,VALID,222.726,VALID,22.003,VALID,289,VALID,0,
2017-01-19, 15:44:04,VALID,919.941,VALID,0,VALID,88.7137,VALID,209.833,VALID,21.8859,VALID,289,VALID,0,
2017-01-19, 15:45:04,VALID,919.904,VALID,0,VALID,88.8662,VALID,222.618,VALID,21.8859,VALID,289,VALID,0,
2017-01-19, 15:46:04,VALID,919.91,VALID,0,VALID,87.6998,VALID,297.182,VALID,21.8452,VALID,289,VALID,0,
2017-01-19, 15:47:04,VALID,919.921,VALID,0,VALID,87.5397,VALID,420.417,VALID,21.8859,VALID,289,VALID,0,
2017-01-19, 15:48:04,VALID,919.91,VALID,0,VALID,90.6424,VALID,502.395,VALID,22.0615,VALID,289,VALID,0,
2017-01-19, 15:49:04,VALID,919.887,VALID,0,VALID,86.9146,VALID,513.676,VALID,22.1981,VALID,289,VALID,0,
2017-01-19, 15:50:04,VALID,919.87,VALID,0,VALID,86.2818,VALID,524.957,VALID,22.255,VALID,294,VALID,0,
2017-01-19, 15:51:04,VALID,919.887,VALID,0,VALID,80.7091,VALID,522.164,VALID,22.4306,VALID,350,VALID,0,
2017-01-19, 15:52:04,VALID,919.886,VALID,0,VALID,81.6239,VALID,538.495,VALID,22.6257,VALID,358,VALID,0,
2017-01-19, 15:53:04,VALID,919.872,VALID,0,VALID,79.2988,VALID,544.082,VALID,22.8209,VALID,7,VALID,0.0605469,
2017-01-19, 15:54:04,VALID,919.875,VALID,0,VALID,80.549,VALID,556.438,VALID,22.9575,VALID,357,VALID,1.13633,
2017-01-19, 15:55:04,VALID,919.906,VALID,0,VALID,78.0257,VALID,552.033,VALID,22.9965,VALID,341,VALID,0.171094,
2017-01-19, 15:56:04,VALID,919.898,VALID,0,VALID,75.9216,VALID,534.627,VALID,23.0941,VALID,16,VALID,0.916797,
2017-01-19, 15:57:04,VALID,919.921,VALID,0,VALID,75.7081,VALID,496.163,VALID,23.0178,VALID,21,VALID,0.955078,
2017-01-19, 15:58:04,VALID,919.92,VALID,0,VALID,76.4247,VALID,481.874,VALID,22.938,VALID,357,VALID,0.298828,
2017-01-19, 15:59:04,VALID,919.922,VALID,0,VALID,78.5441,VALID,366.697,VALID,22.9965,VALID,30,VALID,0.421094,
2017-01-19, 16:00:04,VALID,919.945,VALID,0,VALID,81.5629,VALID,522.057,VALID,23.0941,VALID,316,VALID,0,
2017-01-19, 16:01:04,VALID,919.961,VALID,0,VALID,76.1503,VALID,626.06,VALID,23.2502,VALID,301,VALID,0,
2017-01-19, 16:02:04,VALID,919.943,VALID,0,VALID,76.7297,VALID,527.321,VALID,23.504,VALID,306,VALID,0,
2017-01-19, 16:03:04,VALID,919.961,VALID,0,VALID,73.6956,VALID,490.684,VALID,23.6602,VALID,254,VALID,0,
2017-01-19, 16:04:04,VALID,919.961,VALID,0,VALID,76.2113,VALID,343.919,VALID,23.5235,VALID,275,VALID,0,
2017-01-19, 16:05:04,VALID,919.995,VALID,0,VALID,76.5086,VALID,320.067,VALID,23.4046,VALID,233,VALID,0,
2017-01-19, 16:06:04,VALID,919.985,VALID,0,VALID,79.2683,VALID,306.744,VALID,23.3656,VALID,266,VALID,0,
2017-01-19, 16:07:04,VALID,919.984,VALID,0,VALID,76.3104,VALID,301.158,VALID,23.3265,VALID,255,VALID,0,
2017-01-19, 16:08:04,VALID,920.001,VALID,0,VALID,76.9355,VALID,303.736,VALID,23.3088,VALID,287,VALID,0,
2017-01-19, 16:09:04,VALID,919.996,VALID,0,VALID,77.5149,VALID,305.67,VALID,23.3851,VALID,322,VALID,0,
2017-01-19, 16:10:04,VALID,919.989,VALID,0,VALID,76.8212,VALID,308.678,VALID,23.5803,VALID,326,VALID,0,
2017-01-19, 16:11:04,VALID,919.986,VALID,0,VALID,78.018,VALID,312.546,VALID,23.756,VALID,328,VALID,0,
2017-01-19, 16:12:04,VALID,920.008,VALID,0,VALID,75.8835,VALID,328.018,VALID,23.8322,VALID,299,VALID,0,
2017-01-19, 16:13:04,VALID,920.006,VALID,0,VALID,76.6077,VALID,353.374,VALID,23.8926,VALID,273,VALID,0,
2017-01-19, 16:14:04,VALID,920.021,VALID,0,VALID,74.9001,VALID,356.275,VALID,23.8749,VALID,278,VALID,0,
2017-01-19, 16:15:04,VALID,920.01,VALID,0,VALID,75.1211,VALID,338.01,VALID,23.834,VALID,275,VALID,0,
2017-01-19, 16:16:04,VALID,920.007,VALID,0,VALID,75.7768,VALID,325.439,VALID,23.7755,VALID,273,VALID,0,
2017-01-19, 16:17:04,VALID,920.014,VALID,0,VALID,76.1656,VALID,295.785,VALID,23.8358,VALID,281,VALID,0,
2017-01-19, 16:18:04,VALID,920.012,VALID,0,VALID,75.1593,VALID,276.983,VALID,23.8731,VALID,302,VALID,0,
2017-01-19, 16:19:04,VALID,920.048,VALID,0,VALID,74.0462,VALID,263.768,VALID,23.9725,VALID,298,VALID,0,
2017-01-19, 16:20:04,VALID,920.062,VALID,0,VALID,73.2229,VALID,249.693,VALID,23.9902,VALID,348,VALID,0.250391,
2017-01-19, 16:21:04,VALID,920.07,VALID,0,VALID,74.0005,VALID,238.197,VALID,23.9316,VALID,5,VALID,0,
2017-01-19, 16:22:04,VALID,920.089,VALID,0,VALID,74.6409,VALID,227.023,VALID,23.8358,VALID,6,VALID,0,
2017-01-19, 16:23:04,VALID,920.122,VALID,0,VALID,73.4669,VALID,216.709,VALID,23.8163,VALID,23,VALID,0,
2017-01-19, 16:24:04,VALID,920.155,VALID,0,VALID,73.9014,VALID,209.51,VALID,23.7187,VALID,23,VALID,0,
2017-01-19, 16:25:04,VALID,920.147,VALID,0,VALID,73.2687,VALID,198.444,VALID,23.6584,VALID,23,VALID,0,
2017-01-19, 16:26:04,VALID,920.159,VALID,0,VALID,73.7794,VALID,193.609,VALID,23.6193,VALID,17,VALID,0,
2017-01-19, 16:27:04,VALID,920.159,VALID,0,VALID,74.8391,VALID,193.716,VALID,23.6388,VALID,246,VALID,0,
2017-01-19, 16:28:04,VALID,920.178,VALID,0,VALID,75.1669,VALID,196.295,VALID,23.5821,VALID,222,VALID,0,
2017-01-19, 16:29:04,VALID,920.188,VALID,0,VALID,76.1198,VALID,200.055,VALID,23.5022,VALID,225,VALID,0,
2017-01-19, 16:30:04,VALID,920.186,VALID,0,VALID,75.5557,VALID,198.981,VALID,23.5022,VALID,225,VALID,0,
2017-01-19, 16:31:04,VALID,920.144,VALID,0,VALID,75.1059,VALID,196.188,VALID,23.6211,VALID,225,VALID,0,
2017-01-19, 16:32:04,VALID,920.17,VALID,0,VALID,74.8086,VALID,189.634,VALID,23.7382,VALID,245,VALID,0,
2017-01-19, 16:33:04,VALID,920.173,VALID,0,VALID,74.1301,VALID,184.691,VALID,23.6388,VALID,273,VALID,0,
2017-01-19, 16:34:04,VALID,920.147,VALID,0,VALID,74.5418,VALID,182.328,VALID,23.5217,VALID,266,VALID,0,
2017-01-19, 16:35:04,VALID,920.133,VALID,0,VALID,76.2875,VALID,180.501,VALID,23.3656,VALID,261,VALID,0,
2017-01-19, 16:36:04,VALID,920.157,VALID,0,VALID,77.21,VALID,179.642,VALID,23.307,VALID,228,VALID,0,
2017-01-19, 16:37:04,VALID,920.145,VALID,0,VALID,78.4602,VALID,179.319,VALID,23.2698,VALID,249,VALID,0,
2017-01-19, 16:38:04,VALID,920.117,VALID,0,VALID,79.0167,VALID,179.964,VALID,23.1704,VALID,250,VALID,0,
2017-01-19, 16:39:04,VALID,920.086,VALID,0,VALID,78.971,VALID,176.096,VALID,23.1509,VALID,249,VALID,0,
2017-01-19, 16:40:04,VALID,920.12,VALID,0,VALID,79.84,VALID,172.658,VALID,23.2502,VALID,249,VALID,0,
2017-01-19, 16:41:04,VALID,920.112,VALID,0,VALID,80.2365,VALID,173.303,VALID,23.3283,VALID,250,VALID,0,
2017-01-19, 16:42:04,VALID,920.04,VALID,0,VALID,79.8553,VALID,175.989,VALID,23.4454,VALID,250,VALID,0,
2017-01-19, 16:43:04,VALID,920.09,VALID,0,VALID,78.8185,VALID,179.104,VALID,23.5626,VALID,250,VALID,0,
2017-01-19, 16:44:04,VALID,920.088,VALID,0,VALID,78.5517,VALID,183.402,VALID,23.6797,VALID,250,VALID,0,
2017-01-19, 16:45:04,VALID,920.064,VALID,0,VALID,76.5391,VALID,188.882,VALID,23.6974,VALID,250,VALID,0,
2017-01-19, 16:46:04,VALID,920.082,VALID,0,VALID,75.8454,VALID,194.146,VALID,23.6602,VALID,265,VALID,0,
2017-01-19, 16:47:04,VALID,920.065,VALID,0,VALID,77.37,VALID,199.303,VALID,23.5821,VALID,265,VALID,0,
2017-01-19, 16:48:04,VALID,920.051,VALID,0,VALID,77.3472,VALID,203.064,VALID,23.6211,VALID,274,VALID,0,
2017-01-19, 16:49:04,VALID,920.053,VALID,0,VALID,78.2696,VALID,205.213,VALID,23.6797,VALID,316,VALID,0,
2017-01-19, 16:50:04,VALID,920.054,VALID,0,VALID,75.9978,VALID,208.758,VALID,23.7578,VALID,301,VALID,0,
2017-01-19, 16:51:04,VALID,920.045,VALID,0,VALID,76.7144,VALID,214.775,VALID,23.6406,VALID,267,VALID,0,
2017-01-19, 16:52:04,VALID,920.065,VALID,0,VALID,77.4082,VALID,224.659,VALID,23.5803,VALID,286,VALID,0,
2017-01-19, 16:53:04,VALID,920.038,VALID,0,VALID,77.2481,VALID,238.734,VALID,23.4437,VALID,297,VALID,0,
2017-01-19, 16:54:04,VALID,920.041,VALID,0,VALID,77.797,VALID,254.421,VALID,23.4241,VALID,225,VALID,0,
2017-01-19, 16:55:04,VALID,920.045,VALID,0,VALID,77.8122,VALID,268.925,VALID,23.4632,VALID,222,VALID,0,
2017-01-19, 16:56:04,VALID,920.036,VALID,0,VALID,78.3154,VALID,283.86,VALID,23.504,VALID,227,VALID,0,
2017-01-19, 16:57:04,VALID,920.068,VALID,0,VALID,80.6176,VALID,296.752,VALID,23.4827,VALID,230,VALID,0,
2017-01-19, 16:58:04,VALID,920.019,VALID,0,VALID,78.0257,VALID,304.811,VALID,23.4632,VALID,274,VALID,0,
2017-01-19, 16:59:04,VALID,919.997,VALID,0,VALID,79.4894,VALID,310.183,VALID,23.4064,VALID,300,VALID,0,
2017-01-19, 17:00:04,VALID,919.989,VALID,0,VALID,78.6737,VALID,313.621,VALID,23.3674,VALID,329,VALID,0,
2017-01-19, 17:01:04,VALID,919.969,VALID,0,VALID,79.1387,VALID,314.588,VALID,23.4241,VALID,329,VALID,0,
2017-01-19, 17:02:04,VALID,919.98,VALID,0,VALID,78.3154,VALID,313.298,VALID,23.5412,VALID,329,VALID,0,
2017-01-19, 17:03:04,VALID,919.981,VALID,0,VALID,77.0956,VALID,311.042,VALID,23.5412,VALID,329,VALID,0,
2017-01-19, 17:04:04,VALID,919.969,VALID,0,VALID,77.6064,VALID,310.505,VALID,23.6584,VALID,329,VALID,0,
2017-01-19, 17:05:04,VALID,919.942,VALID,0,VALID,76.7373,VALID,313.513,VALID,23.8536,VALID,321,VALID,0,
2017-01-19, 17:06:04,VALID,919.927,VALID,0,VALID,76.4171,VALID,317.596,VALID,23.8554,VALID,277,VALID,0,
2017-01-19, 17:07:04,VALID,919.887,VALID,0,VALID,76.4705,VALID,320.712,VALID,23.795,VALID,267,VALID,0,
2017-01-19, 17:08:04,VALID,919.924,VALID,0,VALID,76.0055,VALID,323.29,VALID,23.6388,VALID,244,VALID,0,
2017-01-19, 17:09:04,VALID,919.903,VALID,0,VALID,76.9203,VALID,327.266,VALID,23.5803,VALID,219,VALID,0,
2017-01-19, 17:10:04,VALID,919.872,VALID,0,VALID,77.0194,VALID,332.853,VALID,23.5998,VALID,324,VALID,0,
2017-01-19, 17:11:04,VALID,919.862,VALID,0,VALID,74.3588,VALID,339.084,VALID,23.7364,VALID,329,VALID,0,
2017-01-19, 17:12:04,VALID,919.831,VALID,0,VALID,73.1695,VALID,348.432,VALID,23.8926,VALID,329,VALID,0,
2017-01-19, 17:13:04,VALID,919.864,VALID,0,VALID,74.3512,VALID,381.846,VALID,24.0683,VALID,340,VALID,0,
2017-01-19, 17:14:04,VALID,919.856,VALID,0,VALID,73.0171,VALID,390.011,VALID,24.2263,VALID,5,VALID,0,
2017-01-19, 17:15:04,VALID,919.849,VALID,0,VALID,73.322,VALID,414.186,VALID,24.3221,VALID,5,VALID,0,
2017-01-19, 17:16:04,VALID,919.84,VALID,0,VALID,73.7261,VALID,410.962,VALID,24.5564,VALID,358,VALID,0,
2017-01-19, 17:17:04,VALID,919.848,VALID,0,VALID,68.8547,VALID,393.449,VALID,24.4783,VALID,258,VALID,0,
2017-01-19, 17:18:04,VALID,919.815,VALID,0,VALID,71.9041,VALID,395.169,VALID,24.2458,VALID,305,VALID,0,
2017-01-19, 17:19:04,VALID,919.793,VALID,0,VALID,73.1467,VALID,398.607,VALID,24.1659,VALID,284,VALID,0,
2017-01-19, 17:20:04,VALID,919.785,VALID,0,VALID,72.6664,VALID,393.235,VALID,24.2245,VALID,247,VALID,0,
2017-01-19, 17:21:04,VALID,919.777,VALID,0,VALID,73.6117,VALID,407.417,VALID,24.4002,VALID,234,VALID,0,
2017-01-19, 17:22:04,VALID,919.776,VALID,0,VALID,71.965,VALID,422.244,VALID,24.5778,VALID,296,VALID,0.614844,
2017-01-19, 17:23:04,VALID,919.755,VALID,0,VALID,71.8583,VALID,438.038,VALID,24.3611,VALID,263,VALID,0,
2017-01-19, 17:24:04,VALID,919.723,VALID,0,VALID,72.7808,VALID,436.211,VALID,24.2049,VALID,249,VALID,0,
2017-01-19, 17:25:04,VALID,919.695,VALID,0,VALID,72.1328,VALID,448.244,VALID,24.1073,VALID,258,VALID,0,
2017-01-19, 17:26:04,VALID,919.697,VALID,0,VALID,74.3131,VALID,463.394,VALID,24.0878,VALID,257,VALID,0,
2017-01-19, 17:27:04,VALID,919.657,VALID,0,VALID,72.8951,VALID,462.319,VALID,24.1659,VALID,321,VALID,0,
2017-01-19, 17:28:04,VALID,919.69,VALID,0,VALID,74.4655,VALID,463.286,VALID,24.2049,VALID,323,VALID,0,
2017-01-19, 17:29:04,VALID,919.633,VALID,0,VALID,73.2153,VALID,466.402,VALID,24.3026,VALID,351,VALID,0.0015625,
2017-01-19, 17:30:04,VALID,919.64,VALID,0,VALID,69.6399,VALID,493.585,VALID,24.363,VALID,256,VALID,0,
2017-01-19, 17:31:04,VALID,919.629,VALID,0,VALID,69.3197,VALID,495.089,VALID,24.4002,VALID,256,VALID,0,
2017-01-19, 17:32:04,VALID,919.606,VALID,0,VALID,68.8547,VALID,475.212,VALID,24.6149,VALID,255,VALID,0,
2017-01-19, 17:33:04,VALID,919.602,VALID,0,VALID,69.4569,VALID,489.609,VALID,24.7126,VALID,208,VALID,0.394141,
2017-01-19, 17:34:04,VALID,919.588,VALID,0,VALID,69.7848,VALID,629.605,VALID,24.7321,VALID,256,VALID,0.0105469,
2017-01-19, 17:35:04,VALID,919.579,VALID,0,VALID,69.3273,VALID,676.987,VALID,24.7907,VALID,307,VALID,0,
2017-01-19, 17:36:04,VALID,919.574,VALID,0,VALID,70.1507,VALID,652.705,VALID,24.7907,VALID,253,VALID,0.317969,
2017-01-19, 17:37:04,VALID,919.575,VALID,0,VALID,72.6283,VALID,555.578,VALID,24.7321,VALID,333,VALID,0.00195313,
2017-01-19, 17:38:04,VALID,919.573,VALID,0,VALID,68.6946,VALID,515.18,VALID,24.7907,VALID,283,VALID,0,
2017-01-19, 17:39:04,VALID,919.552,VALID,0,VALID,68.6184,VALID,559.983,VALID,24.654,VALID,250,VALID,0.406641,
2017-01-19, 17:40:04,VALID,919.568,VALID,0,VALID,70.6005,VALID,518.833,VALID,24.3416,VALID,253,VALID,0.372656,
2017-01-19, 17:41:04,VALID,919.526,VALID,0,VALID,73.0933,VALID,495.089,VALID,24.2245,VALID,250,VALID,0,
2017-01-19, 17:42:04,VALID,919.533,VALID,0,VALID,73.9929,VALID,474.353,VALID,24.2635,VALID,318,VALID,0,
2017-01-19, 17:43:04,VALID,919.541,VALID,0,VALID,71.1798,VALID,492.51,VALID,24.4002,VALID,288,VALID,0.224219,
2017-01-19, 17:44:04,VALID,919.494,VALID,0,VALID,71.4009,VALID,509.593,VALID,24.3611,VALID,276,VALID,0.00117188,
2017-01-19, 17:45:04,VALID,919.491,VALID,0,VALID,71.5839,VALID,512.172,VALID,24.3007,VALID,287,VALID,0,
2017-01-19, 17:46:04,VALID,919.457,VALID,0,VALID,70.1278,VALID,500.568,VALID,24.4374,VALID,278,VALID,0,
2017-01-19, 17:47:04,VALID,919.459,VALID,0,VALID,72.0565,VALID,493.262,VALID,24.5935,VALID,293,VALID,0,
2017-01-19, 17:48:04,VALID,919.423,VALID,0,VALID,68.5345,VALID,501.213,VALID,24.6521,VALID,250,VALID,0.0289063,
2017-01-19, 17:49:04,VALID,919.418,VALID,0,VALID,70.3413,VALID,502.502,VALID,24.6716,VALID,267,VALID,0,
2017-01-19, 17:50:04,VALID,919.414,VALID,0,VALID,71.2942,VALID,504.759,VALID,24.8297,VALID,12,VALID,0,
2017-01-19, 17:51:04,VALID,919.439,VALID,0,VALID,69.3502,VALID,448.03,VALID,25.0036,VALID,297,VALID,0,
2017-01-19, 17:52:04,VALID,919.413,VALID,0,VALID,67.0098,VALID,433.31,VALID,24.9255,VALID,262,VALID,0,
2017-01-19, 17:53:04,VALID,919.404,VALID,0,VALID,67.3376,VALID,439.434,VALID,24.6326,VALID,251,VALID,1.27305,
2017-01-19, 17:54:04,VALID,919.413,VALID,0,VALID,70.0516,VALID,489.072,VALID,24.4197,VALID,248,VALID,0,
2017-01-19, 17:55:04,VALID,919.436,VALID,0,VALID,70.6157,VALID,589.852,VALID,24.3983,VALID,276,VALID,0,
2017-01-19, 17:56:04,VALID,919.41,VALID,0,VALID,69.3045,VALID,528.181,VALID,24.4178,VALID,261,VALID,0,
2017-01-19, 17:57:04,VALID,919.388,VALID,0,VALID,71.0502,VALID,529.363,VALID,24.4764,VALID,249,VALID,0,
2017-01-19, 17:58:04,VALID,919.389,VALID,0,VALID,69.335,VALID,474.675,VALID,24.6326,VALID,233,VALID,0,
2017-01-19, 17:59:04,VALID,919.361,VALID,0,VALID,68.7251,VALID,497.775,VALID,24.693,VALID,221,VALID,0,
2017-01-19, 18:00:04,VALID,919.35,VALID,0,VALID,69.5103,VALID,548.702,VALID,24.8883,VALID,232,VALID,0,
2017-01-19, 18:01:05,VALID,919.322,VALID,0,VALID,68.1915,VALID,579.323,VALID,25.0836,VALID,250,VALID,0.675781,
2017-01-19, 18:02:05,VALID,919.325,VALID,0,VALID,68.6107,VALID,670.648,VALID,24.8864,VALID,255,VALID,1.43242,
2017-01-19, 18:03:05,VALID,919.308,VALID,0,VALID,71.1265,VALID,520.875,VALID,24.7497,VALID,267,VALID,0,
2017-01-19, 18:04:05,VALID,919.295,VALID,0,VALID,70.8978,VALID,535.057,VALID,24.8278,VALID,270,VALID,0,
2017-01-19, 18:05:05,VALID,919.29,VALID,0,VALID,67.6807,VALID,624.341,VALID,24.9059,VALID,247,VALID,0,
2017-01-19, 18:06:05,VALID,919.264,VALID,0,VALID,68.2219,VALID,600.274,VALID,25.0231,VALID,238,VALID,0,
2017-01-19, 18:07:05,VALID,919.265,VALID,0,VALID,66.1484,VALID,622.084,VALID,25.2379,VALID,236,VALID,0,
2017-01-19, 18:08:05,VALID,919.234,VALID,0,VALID,65.6757,VALID,626.06,VALID,25.2574,VALID,220,VALID,0.0355469,
2017-01-19, 18:09:05,VALID,919.235,VALID,0,VALID,69.6475,VALID,532.801,VALID,25.2183,VALID,286,VALID,0,
2017-01-19, 18:10:05,VALID,919.197,VALID,0,VALID,67.1547,VALID,613.059,VALID,25.2769,VALID,344,VALID,0.0691406,
2017-01-19, 18:11:05,VALID,919.18,VALID,0,VALID,65.5385,VALID,684.937,VALID,25.3746,VALID,6,VALID,2.68359,
2017-01-19, 18:12:05,VALID,919.218,VALID,0,VALID,64.2578,VALID,704.277,VALID,25.5698,VALID,12,VALID,0.333594,
2017-01-19, 18:13:05,VALID,919.172,VALID,0,VALID,62.7483,VALID,722.649,VALID,25.7456,VALID,222,VALID,0.273047,
2017-01-19, 18:14:05,VALID,919.166,VALID,0,VALID,63.4421,VALID,690.954,VALID,25.7476,VALID,183,VALID,0.170312,
2017-01-19, 18:15:05,VALID,919.128,VALID,0,VALID,65.0506,VALID,873.389,VALID,25.7066,VALID,237,VALID,0.598437,
2017-01-19, 18:16:05,VALID,919.117,VALID,0,VALID,64.4179,VALID,577.281,VALID,25.8452,VALID,198,VALID,0.00585938,
2017-01-19, 18:17:05,VALID,919.113,VALID,0,VALID,63.038,VALID,535.594,VALID,26.021,VALID,203,VALID,0.840625,
2017-01-19, 18:18:05,VALID,919.13,VALID,0,VALID,64.6847,VALID,507.445,VALID,26.0992,VALID,244,VALID,0.823047,
2017-01-19, 18:19:05,VALID,919.136,VALID,0,VALID,62.977,VALID,478.221,VALID,25.9019,VALID,249,VALID,0.744141,
2017-01-19, 18:20:05,VALID,919.098,VALID,0,VALID,65.6757,VALID,528.396,VALID,25.5913,VALID,236,VALID,0.163672,
2017-01-19, 18:21:05,VALID,919.085,VALID,0,VALID,65.4242,VALID,549.024,VALID,25.5503,VALID,202,VALID,1.03242,
2017-01-19, 18:22:05,VALID,919.079,VALID,0,VALID,63.5488,VALID,810.966,VALID,25.6284,VALID,201,VALID,0.147266,
2017-01-19, 18:23:05,VALID,919.061,VALID,0,VALID,63.5412,VALID,550.743,VALID,25.7261,VALID,184,VALID,0,
2017-01-19, 18:24:05,VALID,919.056,VALID,0,VALID,61.1703,VALID,528.396,VALID,25.9409,VALID,181,VALID,0,
2017-01-19, 18:25:05,VALID,919.015,VALID,0,VALID,63.7165,VALID,584.265,VALID,26.0386,VALID,11,VALID,1.48242,
2017-01-19, 18:26:05,VALID,919.042,VALID,0,VALID,63.7927,VALID,833.421,VALID,26.1187,VALID,344,VALID,0,
2017-01-19, 18:27:05,VALID,919.016,VALID,0,VALID,65.4089,VALID,782.064,VALID,26.273,VALID,359,VALID,0,
2017-01-19, 18:28:05,VALID,919.025,VALID,0,VALID,62.8551,VALID,761.221,VALID,26.4683,VALID,33,VALID,0.0195313,
2017-01-19, 18:29:05,VALID,918.985,VALID,0,VALID,65.9426,VALID,747.468,VALID,26.6266,VALID,248,VALID,0,
2017-01-19, 18:30:05,VALID,919.015,VALID,0,VALID,61.7497,VALID,890.902,VALID,26.6636,VALID,228,VALID,0.0289063,
2017-01-19, 18:31:05,VALID,918.977,VALID,0,VALID,62.8169,VALID,880.48,VALID,26.7438,VALID,242,VALID,0,
2017-01-19, 18:32:05,VALID,918.989,VALID,0,VALID,63.1066,VALID,769.279,VALID,26.9176,VALID,356,VALID,0,